Victoria, British Columbia

7:24 AM PST on December 11, 2016 (GMT -0800)
Victoria International

Weather History for CYYJ - November, 2011

Change the Weather History Date:

Saturday, November 5, 2011

  Actual Average Record
Temperature  
Mean Temperature 40 °F -  
Max Temperature 46 °F 48 °F 57 °F (2006)
Min Temperature 33 °F 36 °F 26 °F (2003)
Degree Days  
Heating Degree Days 25    
Moisture  
Dew Point 35 °F    
Average Humidity 82    
Maximum Humidity 93    
Minimum Humidity 60    
Precipitation  
Precipitation 0.00 in 0.19 in - ()
Sea Level Pressure  
Sea Level Pressure 29.84 in    
Wind  
Wind Speed 3 mph ()    
Max Wind Speed 10 mph    
Max Gust Speed -    
Visibility 19.8 miles    
Events      
Averages and records for this station are not official NWS values.
T = Trace of Precipitation, MM = Missing Value Source: Averaged Metar Reports

Daily Weather History Graph

Daily Weather History Graph

Search for Another Location

Airport or City:

Trip Planner

Search our weather history database for the weather conditions in past years. The results will help you decide how hot, cold, wet, or windy it might be!

Date:

Astronomy

Nov. 05, 2011 Rise Set
Actual Time 8:06 AM PDT 5:47 PM PDT
Civil Twilight 7:32 AM PDT 6:21 PM PDT
Nautical Twilight 6:55 AM PDT 6:58 PM PDT
Astronomical Twilight 6:18 AM PDT 7:34 PM PDT
Moon 3:26 PM PDT (11/5) 3:00 AM PDT (11/5)
Length of Visible Light 10h 48m
Length of Day
9h 41m
Waxing Gibbous, 79% of the Moon is Illuminated
Nov 5
Waxing Gibbous
Nov 10
Full
Nov 18
Last Quarter
Nov 24
New
Dec 2
First Quarter

Hourly Weather History & Observations

Time (PDT) Temp. Windchill Dew Point Humidity Pressure Visibility Wind Dir Wind Speed Gust Speed Precip Events Conditions
12:00 AM 35.6 °F - 33.8 °F 93% 29.88 in 30.0 mi WSW 2.3 mph - N/A   Mostly Cloudy
1:00 AM 37.4 °F - 35.6 °F 93% 29.87 in 30.0 mi Calm Calm - N/A   Mostly Cloudy
1:15 AM 37.4 °F - - N/A% - 30.0 mi Calm Calm - N/A   Mostly Cloudy
3:00 AM 37.4 °F - 35.6 °F 93% 29.85 in 30.0 mi West 2.3 mph - N/A   Mostly Cloudy
4:00 AM 37.4 °F 34.9 °F 35.6 °F 93% 29.84 in 20.0 mi SW 3.5 mph - N/A   Overcast
5:00 AM 38 °F - 36 °F 88% 29.83 in 19 mi SW 3.5 mph - -   Overcast
6:00 AM 37.4 °F 34.9 °F 35.6 °F 93% 29.81 in 20.0 mi SW 3.5 mph - N/A   Overcast
7:00 AM 39.2 °F - 37.4 °F 93% 29.81 in 20.0 mi Calm Calm - N/A   Overcast
8:00 AM 39.2 °F - 37.4 °F 93% 29.81 in 20.0 mi Calm Calm - N/A   Overcast
9:00 AM 41.0 °F 35.8 °F 39.2 °F 93% 29.82 in 20.0 mi East 8.1 mph - N/A   Mostly Cloudy
10:00 AM 42.8 °F 37.0 °F 37.4 °F 81% 29.83 in 20.0 mi East 10.4 mph - N/A   Mostly Cloudy
11:00 AM 44 °F - 36 °F 66% 29.83 in 19 mi East 8.1 mph - -   Mostly Cloudy
11:00 AM 44.6 °F 39.7 °F 35.6 °F 71% 29.83 in 20.0 mi East 9.2 mph - N/A   Mostly Cloudy
1:00 PM 46.4 °F 42.9 °F 35.6 °F 66% 29.83 in 30.0 mi East 6.9 mph - N/A   Mostly Cloudy
2:00 PM 46.4 °F 43.5 °F 33.8 °F 62% 29.82 in 30.0 mi NE 5.8 mph - N/A   Mostly Cloudy
3:00 PM 46.4 °F 43.5 °F 35.6 °F 66% 29.82 in 30.0 mi NE 5.8 mph - N/A   Mostly Cloudy
4:00 PM 46.4 °F 42.9 °F 35.6 °F 66% 29.83 in 30.0 mi North 6.9 mph - N/A   Mostly Cloudy
5:00 PM 44 °F - 35 °F 60% 29.83 in 28 mi North 5.8 mph - -   Partly Cloudy
5:00 PM 44.6 °F 41.4 °F 35.6 °F 71% 29.83 in 30.0 mi North 5.8 mph - N/A   Mostly Cloudy
6:00 PM 41.0 °F - 33.8 °F 76% 29.83 in 30.0 mi Calm Calm - N/A   Mostly Cloudy
7:00 PM 37.4 °F 34.9 °F 33.8 °F 87% 29.84 in 30.0 mi SW 3.5 mph - N/A   Mostly Cloudy
7:15 PM 35.6 °F - - N/A% - 30.0 mi SW 2.3 mph - N/A   Mostly Cloudy
8:00 PM 35.6 °F 32.8 °F 32.0 °F 87% 29.85 in 30.0 mi WSW 3.5 mph - N/A   Partly Cloudy
9:00 PM 35.6 °F - 32.0 °F 87% 29.86 in 30.0 mi West 2.3 mph - N/A   Scattered Clouds
10:00 PM 35.6 °F 31.7 °F 32.0 °F 87% 29.86 in 30.0 mi West 4.6 mph - N/A   Scattered Clouds
11:00 PM 34 °F - 32 °F 90% 29.88 in 28 mi West 3.5 mph - -   Scattered Clouds
11:00 PM 33.8 °F 29.6 °F 32.0 °F 93% 29.88 in 30.0 mi West 4.6 mph - N/A   Scattered Clouds